Miscellaneous Local Product
Issued by NWS Hastings, NE

Home | Current Version | Previous Version | Text Only | Print | Product List | Glossary Off
Versions: 1 2 3 4 5 6 7 8 9 10 11 12 13 14 15 16 17 18 19 20 21 22 23 24 25 26 27 28 29 30 31 32 33 34 35 36 37 38 39 40 41 42 43 44 45 46 47 48 49 50

000
AXUS43 KGID 272302
MISGRI

GID CWA HOURLY WEATHER ROUNDUP
NATIONAL WEATHER SERVICE HASTINGS NE
600 PM CDT WED APR 27 2016

NOTE: "FAIR" INDICATES FEW OR NO CLOUDS BELOW 12,000 FEET WITH NO
SIGNIFICANT WEATHER AND/OR OBSTRUCTIONS TO VISIBILITY.

...SOUTH CENTRAL NEBRASKA...

CITY           SKY/WX    TMP DP  RH WIND       PRES   REMARKS
GRAND ISLAND   LGT RAIN  42  40  92 NW31G43   29.52R FOG
HASTINGS       CLOUDY    41  38  89 NW32G45   29.56R
KEARNEY        CLOUDY    39  36  87 NW28G39   29.62R WCI  28
ORD            CLOUDY    41  39  93 NW21G31   29.59R
YORK           CLOUDY    46  45  93 W22       29.45F
AURORA         CLOUDY    44  43  95 NW40G47   29.47R
LEXINGTON      LGT RAIN  40  36  83 NW28G38   29.67R WCI  29
HOLDREGE       LGT RAIN  41  37  84 NW24G35   29.64R
HEBRON         CLOUDY    46  41  80 W17G25    29.58R

...NEBRASKA PANHANDLE...

CITY           SKY/WX    TMP DP  RH WIND       PRES   REMARKS
CHADRON        LGT SNOW  38  35  89 N20G30    29.81R FOG     WCI  28
ALLIANCE       LGT RAIN  39  37  92 N16       29.76R WCI  30
SCOTTSBLUFF    CLOUDY    47  31  53 NW29G36   29.81R
SIDNEY         PTSUNNY   50  29  44 NW28G38   29.77R

...WESTERN AND NORTH CENTRAL NEBRASKA...

CITY           SKY/WX    TMP DP  RH WIND       PRES   REMARKS
VALENTINE      CLOUDY    35  31  85 NW16      29.72R WCI  25
AINSWORTH      MIX PCPN  36  35  96 NW16G23   29.69R WCI  26
ONEILL         CLOUDY    44  42  95 N18       29.61R FOG
BROKEN BOW     LGT RAIN  37  35  92 NW24      29.65R WCI  26
IMPERIAL       LGT RAIN  46  37  71 N18       29.74R
NORTH PLATTE   CLOUDY    42  36  79 NW21G32   29.71S
MCCOOK         CLOUDY    50  36  58 NW29G38   29.70S

...EASTERN NEBRASKA...

CITY           SKY/WX    TMP DP  RH WIND       PRES   REMARKS
NORFOLK        CLOUDY    50  48  93 NE12      29.50F
SO SIOUX CITY  CLOUDY    51  47  86 E18G26    29.55F
TEKAMAH        RAIN      53  52  96 NE9       29.55R FOG
COLUMBUS       CLOUDY    54  41  62 SE8       29.50R
ALBION         CLOUDY    53  49  86 N12G17    29.50R
OMAHA EPPLEY   LGT RAIN  55  53  93 E13       29.51R
OFFUTT AFB     LGT RAIN  53  48  83 S6        29.52R
MILLARD        CLOUDY    55  51  89 W3        29.51S
LINCOLN        CLOUDY    52  43  71 SW18      29.52S
NEBRASKA CITY  CLOUDY    53  44  72 SW24      29.53R
BEATRICE       CLOUDY    49  43  78 W20G26    29.54S
FALLS CITY     CLOUDY    54  45  71 W25G33    29.56R

...NORTHERN KANSAS...

CITY           SKY/WX    TMP DP  RH WIND       PRES   REMARKS
GOODLAND       MOSUNNY   54  31  41 NW24G32   29.72S
HILL CITY      SUNNY     55  37  50 NW26G40   29.70R
NORTON         PTCLDY    50  36  57 W25G39    29.67S
PHILLIPSBURG   PTSUNNY   52  39  62 W28G37    29.67R
SMITH CENTER   CLOUDY    46  37  71 NW23      29.67R
BELOIT         PTSUNNY   50  39  66 W20G25    29.64S
HAYS           PTSUNNY   55  36  47 NW21G33   29.70R
RUSSELL        PTSUNNY   58  38  47 NW20G35   29.67R
CONCORDIA      CLOUDY    49  41  74 W18       29.62R
SALINA         CLOUDY    61  43  51 W23G31    29.65R
TOPEKA         MOSUNNY   59  46  62 W16G24    29.61R



USA.gov is the U.S. government's official web portal to all federal, state and local government web resources and services.